Doha, Qatar

10:02 PM AST on February 10, 2016 (GMT +0300)
Doha International

Weather History for OTBD - April, 2013

Change the Weather History Date:

Friday, April 26, 2013

  Actual Average Record
Temperature  
Mean Temperature 79 °F -  
Max Temperature 82 °F 99 °F - ()
Min Temperature 76 °F 76 °F - ()
Cooling Degree Days 14    
Growing Degree Days 29 (Base 50)    
Moisture  
Dew Point 52 °F    
Average Humidity 37    
Maximum Humidity 47    
Minimum Humidity 21    
Precipitation  
Precipitation 0.00 in 0.01 in - ()
Sea Level Pressure  
Sea Level Pressure 29.95 in    
Wind  
Wind Speed 7 mph ()    
Max Wind Speed 14 mph    
Max Gust Speed -    
Visibility 7.3 miles    
Events Rain    
T = Trace of Precipitation, MM = Missing Value Source: Averaged Metar Reports

Daily Weather History Graph

Daily Weather History Graph

Search for Another Location

Airport or City:

Trip Planner

Search our weather history database for the weather conditions in past years. The results will help you decide how hot, cold, wet, or windy it might be!

Date:

Astronomy

Apr. 26, 2013 Rise Set
Actual Time 5:01 AM AST 6:01 PM AST
Civil Twilight 4:37 AM AST 6:25 PM AST
Nautical Twilight 4:09 AM AST 6:53 PM AST
Astronomical Twilight 3:40 AM AST 7:22 PM AST
Moon 6:50 PM AST (4/26) 5:14 AM AST (4/26)
Length of Visible Light 13h 47m
Length of Day
13h 00m
Full, 100% of the Moon is Illuminated
Apr 26
Full
May 2
Last Quarter
May 10
New
May 18
First Quarter
May 25
Full

Hourly Weather History & Observations

Time (AST) Temp. Heat Index Dew Point Humidity Pressure Visibility Wind Dir Wind Speed Gust Speed Precip Events Conditions
12:00 AM 78.8 °F - 46.4 °F 32% 29.89 in - North 9.2 mph - N/A   Clear
12:30 AM 78.8 °F - 48.2 °F 34% 29.89 in - NNW 10.4 mph - N/A   Clear
1:00 AM 78.8 °F - 44.6 °F 30% 29.89 in - NNW 10.4 mph - N/A   Clear
1:30 AM 78.8 °F - 44.6 °F 30% 29.86 in - NNW 12.7 mph - N/A   Clear
2:00 AM 78.8 °F - 42.8 °F 28% 29.89 in - NNW 13.8 mph - N/A   Clear
3:00 AM 79 °F - 46 °F 21% 29.91 in 9 mi NW 8.1 mph - -   Partly Cloudy
3:00 AM 78.8 °F - 46.4 °F 32% 29.89 in - NW 8.1 mph - N/A   Clear
3:30 AM 77.0 °F - 48.2 °F 36% 29.89 in - North 10.4 mph - N/A   Clear
4:00 AM 77.0 °F - 51.8 °F 41% 29.89 in - NNW 10.4 mph - N/A   Clear
4:30 AM 78.8 °F - 48.2 °F 34% 29.89 in - NNW 11.5 mph - N/A   Clear
5:00 AM 78.8 °F - 50.0 °F 36% 29.92 in - NNW 12.7 mph - N/A   Clear
6:00 AM 78 °F - 52 °F 29% 29.96 in 10 mi NNW 6.9 mph - -   Overcast
6:00 AM 78.8 °F - 51.8 °F 39% 29.95 in - NNW 6.9 mph - N/A   Clear
6:30 AM 78.8 °F - 51.8 °F 39% 29.98 in 6.2 mi WNW 3.5 mph - N/A Rain Light Rain
7:00 AM 78.8 °F - 53.6 °F 42% 29.98 in - SSW 4.6 mph - N/A   Clear
7:30 AM 78.8 °F - 55.4 °F 44% 30.01 in - SSW 4.6 mph - N/A   Clear
8:00 AM 77.0 °F - 55.4 °F 47% 30.01 in - SSW 8.1 mph - N/A   Clear
8:30 AM 78.8 °F - 55.4 °F 44% 30.01 in - SW 6.9 mph - N/A   Clear
9:00 AM 80 °F - 54 °F 30% 30.02 in 6 mi SW 5.8 mph - -   Partly Cloudy
9:00 AM 80.6 °F 80.3 °F 53.6 °F 39% 30.01 in - SW 5.8 mph - N/A   Clear
9:30 AM 80.6 °F 80.3 °F 53.6 °F 39% 30.01 in - SW 5.8 mph - N/A   Clear
10:00 AM 80.6 °F 80.3 °F 53.6 °F 39% 30.01 in - WSW 4.6 mph - N/A   Clear
10:30 AM 80.6 °F 80.3 °F 53.6 °F 39% 30.01 in - SW 6.9 mph - N/A   Clear
11:00 AM 80.6 °F 80.5 °F 55.4 °F 42% 30.01 in 6.2 mi SW 5.8 mph - N/A Rain Light Rain
11:30 AM 82.4 °F 81.7 °F 55.4 °F 39% 30.01 in - SSW 6.9 mph - N/A   Clear
12:00 PM 82.4 °F - 51.8 °F 35% 30.01 in - SW 6.9 mph - N/A   Clear
12:30 PM 82.4 °F - 51.8 °F 35% 30.01 in - SW 5.8 mph - N/A   Clear
1:00 PM 82.4 °F - 51.8 °F 35% 29.98 in - SSW 5.8 mph - N/A   Clear
1:30 PM 82.4 °F - 51.8 °F 35% 29.98 in 6.2 mi Variable 2.3 mph - N/A Rain Light Rain
2:00 PM 82.4 °F - 51.8 °F 35% 29.98 in - Variable 4.6 mph - N/A   Clear
2:30 PM 82.4 °F - 51.8 °F 35% 29.95 in - WNW 5.8 mph - N/A   Clear
3:00 PM 82 °F - 51 °F 24% 29.96 in 10 mi NW 5.8 mph - - Rain Light Rain
3:00 PM 82.4 °F - 51.8 °F 35% 29.95 in - NW 5.8 mph - N/A   Clear
3:30 PM 82.4 °F 81.4 °F 53.6 °F 37% 29.95 in - Variable 4.6 mph - N/A   Clear
4:00 PM 80.6 °F 80.5 °F 55.4 °F 42% 29.92 in 6.2 mi NNE 9.2 mph - N/A Rain Light Rain
4:30 PM 80.6 °F 80.3 °F 53.6 °F 39% 29.92 in 6.2 mi NE 5.8 mph - N/A Rain Light Rain
5:00 PM 80.6 °F 80.5 °F 55.4 °F 42% 29.92 in - NE 4.6 mph - N/A   Clear
5:30 PM 80.6 °F 80.5 °F 55.4 °F 42% 29.92 in 6.2 mi NE 4.6 mph - N/A Rain Light Rain
6:00 PM 80.6 °F 80.5 °F 55.4 °F 42% 29.92 in 6.2 mi NNE 3.5 mph - N/A Rain Light Rain
7:00 PM 80.6 °F 80.3 °F 53.6 °F 39% 29.92 in - SE 4.6 mph - N/A   Clear
8:00 PM 80.6 °F 80.5 °F 55.4 °F 42% 29.95 in - SSW 4.6 mph - N/A   Clear
9:00 PM 78 °F - 54 °F 33% 29.97 in 9 mi 2.3 mph - -   Partly Cloudy
9:00 PM 78.8 °F - 53.6 °F 42% 29.95 in - Variable 2.3 mph - N/A   Clear
9:30 PM 78.8 °F - 50.0 °F 36% 29.95 in - North 6.9 mph - N/A   Clear
10:00 PM 78.8 °F - 50.0 °F 36% 29.95 in - North 4.6 mph - N/A   Clear
10:30 PM 78.8 °F - 50.0 °F 36% 29.95 in - North 4.6 mph - N/A   Clear
11:00 PM 78.8 °F - 50.0 °F 36% 29.95 in - NW 4.6 mph - N/A   Clear
11:30 PM 78.8 °F - 48.2 °F 34% 29.95 in - Variable 2.3 mph - N/A   Clear